Weather in Tokushima

Japan     34°03′47″N   134°31′11″E
temp.,
°C
wind,
m/s
gust,
m/s
humid.,
%
clouds,
%
prec.,
mm/h
press.,
hPa
HPBL,
m
11 april, sun
sun1100:00+6w226377 0.0 103243
03:00+6w22680 0.0 103241
06:00+5w22690 0.0 103343
09:00+12nne22480 0.0 1034574
12:00+15ene32390 0.0 10321087
15:00+16e33350 0.0 10301033
18:00+12sse23570 0.0 1030120
21:00+9ssw34700 0.0 103291
12 april, mon
mon1200:00+10s368048 0.0 1032164
03:00+10sse358626 0.1 1031165
06:00+11sse388071 0.1 1031370
09:00+14sse586234 0.1 10311194
12:00+16sse7954100 0.0 10291514
15:00+15sse71062100 0.1 10271286
18:00+14sse61168100 0.0 10271113
21:00+14sse61068100 0.0 10271104
13 april, tue
tue1300:00+13se51079100 0.3 1025902
03:00+12sse51189100 0.9 1022913
06:00+13sse51294100 4.7 10201049
09:00+14sse71495100 10.3 10191117
12:00+14s61490100 1.9 1015997
15:00+14ssw3591100 3.6 1013202
18:00+13ssw1294100 0.4 101474
21:00+12ssw229469 0.6 101353
14 april, wed
wed1400:00+13wnw2295100 0.4 101260
03:00+13nnw2397100 2.2 1010102
06:00+13nnw2397100 2.7 1010106
09:00+14nnw499596 2.8 1010574
12:00+18nnw796316 0.1 10091273
15:00+14n7108291 0.3 1010963
18:00+10n61184100 1.4 10141189
21:00+8nnw6108198 1.8 10171037
15 april, thu
thu1500:00+7n61073100 0.0 1018817
03:00+5nnw487526 0.0 1019500
06:00+4nnw47733 0.0 1020367
09:00+9n45515 0.0 1020894
12:00+13ne324327 0.0 1019945
15:00+15se46504 0.0 10171017
18:00+13sse37729 0.0 1018311
21:00+10s368493 0.0 1021245